Weather History for West Plains, MO

Change the Weather History Date:

Thursday, May 17, 2012

  Actual Average Record
Temperature  
Mean Temperature 67 °F 66 °F  
Max Temperature 83 °F 77 °F 90 °F (2001)
Min Temperature 51 °F 55 °F 37 °F (1973)
Degree Days  
Heating Degree Days 0 3  
Month to date heating degree days 18 60  
Since 1 July heating degree days 3434 4322  
Cooling Degree Days 2 3  
Month to date cooling degree days 68 35  
Year to date cooling degree days 168 63  
Growing Degree Days 17 (Base 50)    
Moisture  
Dew Point 44 °F    
Average Humidity 47    
Maximum Humidity 72    
Minimum Humidity 21    
Precipitation  
Precipitation 0.00 in 0.13 in 1.23 in (1966)
Month to date precipitation 0.15 3.08  
Year to date precipitation 12.52 17.41  
Sea Level Pressure  
Sea Level Pressure 30.01 in    
Wind  
Wind Speed 4 mph (ENE)    
Max Wind Speed 10 mph    
Max Gust Speed 15 mph    
Visibility 10 miles    
Events      
T = Trace of Precipitation, MM = Missing Value Source: NWS Daily Summary

Daily Weather History Graph

Daily Weather History Graph

Search for Another Location

Airport:

Trip Planner

Search our weather history database for the weather conditions in past years. The results will help you decide how hot, cold, wet, or windy it might be!

Date:

Astronomy

May. 17, 2012 Rise Set
Actual Time 5:57 AM CDT 8:10 PM CDT
Civil Twilight 5:28 AM CDT 8:39 PM CDT
Nautical Twilight 4:53 AM CDT 9:15 PM CDT
Astronomical Twilight 4:14 AM CDT 9:54 PM CDT
Moon 3:52 AM CDT (5/17) 5:26 PM CDT (5/17)
Length of Visible Light 15h 11m
Length of Day
14h 12m
Waning Crescent, 9% of the Moon is Illuminated
May 17
Waning Crescent
May 20
New
May 28
First Quarter
Jun 4
Full
Jun 11
Last Quarter

Hourly Weather History & Observations

Time (CDT) Temp. Dew Point Humidity Pressure Visibility Wind Dir Wind Speed Gust Speed Precip Events Conditions
12:53 AM 60.1 °F 46.9 °F 62% 30.01 in 10.0 mi NNE 3.5 mph - N/A   Clear
1:53 AM 57.9 °F 46.9 °F 67% 30.01 in 10.0 mi Calm Calm - N/A   Clear
2:53 AM 55.9 °F 46.9 °F 72% 30.01 in 10.0 mi NNE 3.5 mph - N/A   Clear
3:53 AM 55.9 °F 46.0 °F 69% 30.01 in 10.0 mi Calm Calm - N/A   Clear
4:53 AM 53.1 °F 45.0 °F 74% 30.03 in 10.0 mi NNE 3.5 mph - N/A   Clear
5:53 AM 53.1 °F 44.1 °F 71% 30.04 in 10.0 mi NE 3.5 mph - N/A   Clear
6:53 AM 54.0 °F 45.0 °F 72% 30.06 in 10.0 mi NE 3.5 mph - N/A   Clear
7:53 AM 60.1 °F 44.1 °F 55% 30.06 in 10.0 mi NE 6.9 mph - N/A   Clear
8:53 AM 64.9 °F 43.0 °F 45% 30.07 in 10.0 mi East 5.8 mph - N/A   Clear
9:53 AM 70.0 °F 45.0 °F 41% 30.06 in 10.0 mi ENE 4.6 mph - N/A   Clear
10:53 AM 73.9 °F 45.0 °F 35% 30.05 in 10.0 mi Calm Calm - N/A   Clear
11:53 AM 75.9 °F 43.0 °F 31% 30.05 in 10.0 mi East 4.6 mph - N/A   Clear
12:53 PM 78.1 °F 41.0 °F 27% 30.02 in 10.0 mi Variable 4.6 mph - N/A   Clear
1:53 PM 81.0 °F 39.0 °F 22% 30.01 in 10.0 mi Variable 4.6 mph - N/A   Clear
2:53 PM 81.0 °F 37.9 °F 21% 29.99 in 10.0 mi Calm Calm - N/A   Clear
3:53 PM 81.0 °F 39.0 °F 22% 29.98 in 10.0 mi Variable 4.6 mph - N/A   Clear
4:53 PM 81.0 °F 41.0 °F 24% 29.97 in 10.0 mi ESE 8.1 mph - N/A   Clear
5:53 PM 80.1 °F 41.0 °F 25% 29.96 in 10.0 mi SSE 6.9 mph - N/A   Clear
6:53 PM 79.0 °F 43.0 °F 28% 29.96 in 10.0 mi ESE 6.9 mph - N/A   Clear
7:53 PM 72.0 °F 45.0 °F 38% 29.96 in 10.0 mi ESE 3.5 mph - N/A   Clear
8:53 PM 68.0 °F 46.0 °F 45% 29.97 in 10.0 mi East 4.6 mph - N/A   Clear
9:53 PM 64.0 °F 46.0 °F 52% 29.98 in 10.0 mi East 4.6 mph - N/A   Clear
10:53 PM 57.9 °F 46.0 °F 65% 29.99 in 10.0 mi Calm Calm - N/A   Clear
11:53 PM 55.9 °F 46.0 °F 69% 29.99 in 10.0 mi East 3.5 mph - N/A   Clear